TimeCDT,TemperatureF,Dew PointF,Humidity,Sea Level PressureIn,VisibilityMPH,Wind Direction,Wind SpeedMPH,Gust SpeedMPH,PrecipitationIn,Events,Conditions,WindDirDegrees,DateUTC
12:15 AM,44.6,44.6,100,30.15,10.0,Calm,Calm,-,0.00,,Clear,0,2012-10-09 05:15:00
12:35 AM,42.8,42.8,100,30.14,10.0,Calm,Calm,-,0.00,,Clear,0,2012-10-09 05:35:00
12:55 AM,42.8,42.8,100,30.15,9.0,Calm,Calm,-,0.00,,Clear,0,2012-10-09 05:55:00
1:15 AM,42.8,42.8,100,30.15,9.0,Calm,Calm,-,0.00,,Clear,0,2012-10-09 06:15:00
1:35 AM,44.6,44.6,100,30.15,9.0,Calm,Calm,-,0.00,,Clear,0,2012-10-09 06:35:00
1:55 AM,42.8,42.8,100,30.15,10.0,Calm,Calm,-,0.00,,Clear,0,2012-10-09 06:55:00
2:35 AM,41.0,41.0,100,30.15,10.0,Calm,Calm,-,0.00,,Clear,0,2012-10-09 07:35:00
2:55 AM,42.8,42.8,100,30.15,10.0,Calm,Calm,-,0.00,,Clear,0,2012-10-09 07:55:00
3:15 AM,42.8,42.8,100,30.14,10.0,Calm,Calm,-,0.00,,Clear,0,2012-10-09 08:15:00
3:35 AM,42.8,42.8,100,30.14,10.0,Calm,Calm,-,0.00,,Clear,0,2012-10-09 08:35:00
3:55 AM,39.2,39.2,100,30.14,9.0,Calm,Calm,-,0.00,,Clear,0,2012-10-09 08:55:00
4:15 AM,39.2,39.2,100,30.13,10.0,Calm,Calm,-,0.00,,Clear,0,2012-10-09 09:15:00
4:35 AM,39.2,39.2,100,30.14,8.0,Calm,Calm,-,0.00,,Clear,0,2012-10-09 09:35:00
4:55 AM,39.2,39.2,100,30.14,10.0,Calm,Calm,-,0.00,,Clear,0,2012-10-09 09:55:00
5:15 AM,39.2,39.2,100,30.14,10.0,Calm,Calm,-,0.00,,Clear,0,2012-10-09 10:15:00
5:35 AM,39.2,39.2,100,30.14,9.0,Calm,Calm,-,0.00,,Clear,0,2012-10-09 10:35:00
5:55 AM,39.2,39.2,100,30.14,10.0,Calm,Calm,-,0.00,,Clear,0,2012-10-09 10:55:00
6:15 AM,39.2,39.2,100,30.15,10.0,Calm,Calm,-,0.00,,Clear,0,2012-10-09 11:15:00
6:35 AM,39.2,39.2,100,30.15,9.0,Calm,Calm,-,0.00,,Clear,0,2012-10-09 11:35:00
6:50 AM,39.2,39.2,100,30.15,10.0,Calm,Calm,-,N/A,,Scattered Clouds,0,2012-10-09 11:50:00
7:50 AM,42.8,42.8,100,30.15,10.0,Calm,Calm,-,N/A,,Scattered Clouds,0,2012-10-09 12:50:00
8:50 AM,46.4,46.4,100,30.17,10.0,Calm,Calm,-,N/A,,Scattered Clouds,0,2012-10-09 13:50:00
9:50 AM,55.4,46.4,72,30.17,10.0,South,4.6,-,N/A,,Partly Cloudy,170,2012-10-09 14:50:00
10:50 AM,57.2,44.6,63,30.16,10.0,South,4.6,-,N/A,,Scattered Clouds,180,2012-10-09 15:50:00
12:50 PM,59.0,44.6,59,30.15,10.0,South,9.2,-,N/A,,Scattered Clouds,190,2012-10-09 17:50:00
1:50 PM,62.6,44.6,52,30.08,10.0,South,6.9,-,N/A,,Partly Cloudy,170,2012-10-09 18:50:00
2:50 PM,64.4,46.4,52,30.04,10.0,South,8.1,-,N/A,,Clear,180,2012-10-09 19:50:00
3:45 PM,66.2,46.4,49,30.03,10.0,South,10.4,-,N/A,,Clear,180,2012-10-09 20:45:00
4:49 PM,64.4,46.4,52,30.01,10.0,South,8.1,-,N/A,,Clear,180,2012-10-09 21:49:00
5:50 PM,62.6,46.4,55,30.00,10.0,South,8.1,-,N/A,,Clear,180,2012-10-09 22:50:00
6:50 PM,57.2,48.2,72,30.01,10.0,Calm,Calm,-,N/A,,Clear,0,2012-10-09 23:50:00
7:50 PM,55.4,50.0,82,30.01,10.0,Calm,Calm,-,N/A,,Clear,0,2012-10-10 00:50:00
8:55 PM,55.4,51.8,88,30.02,9.0,South,4.6,-,0.00,,Mostly Cloudy,170,2012-10-10 01:55:00
9:15 PM,55.4,51.8,88,30.02,10.0,SSE,6.9,-,0.00,,Partly Cloudy,160,2012-10-10 02:15:00
9:35 PM,55.4,51.8,88,30.03,10.0,South,6.9,-,0.00,,Scattered Clouds,180,2012-10-10 02:35:00
9:55 PM,55.4,51.8,88,30.04,10.0,South,5.8,-,0.00,,Mostly Cloudy,190,2012-10-10 02:55:00
10:15 PM,55.4,53.6,94,30.05,10.0,SSW,6.9,-,0.00,,Overcast,210,2012-10-10 03:15:00
10:35 PM,55.4,51.8,88,30.05,10.0,South,4.6,-,0.00,,Overcast,170,2012-10-10 03:35:00
10:55 PM,57.2,53.6,88,30.05,10.0,Calm,Calm,-,0.00,,Overcast,0,2012-10-10 03:55:00
11:15 PM,55.4,53.6,94,30.05,10.0,Calm,Calm,-,0.00,,Overcast,0,2012-10-10 04:15:00
11:35 PM,55.4,53.6,94,30.06,9.0,Calm,Calm,-,0.00,,Overcast,0,2012-10-10 04:35:00
11:55 PM,57.2,53.6,88,30.06,10.0,Calm,Calm,-,0.00,,Overcast,0,2012-10-10 04:55:00